[[{"header":{"parameterUnit":"m.s-1","parameterCategory":1,"la1":30.2991,"la2":30.254,"lo1":-89.0895,"lo2":-89.0444,"dy":0.0017,"dx":0.0017,"nx":28,"ny":28,"refTime":"2024-05-24T03:00:00:Z","depth":0,"parameterNumber":2,"parameterNumberName":"U-component_of_WINDS"},"data":[0,0,0,0,0,0,0,0,0,0,0,0,0,0,0,0,0,0,0,0,0,0,0,0,0,0,0,0,0,0,0,0,0,0,0,0,0,0,0,0,0,0,0,0,0,0,0,0,0,0,0,0,0,0,0,0,0,0,-1.9386,-1.9385,0,-1.9308,-1.9307,-1.9306,-1.9246,-1.9245,-1.9245,-1.9244,-1.9161,-1.9159,-1.9157,0,0,0,0,0,0,0,0,0,0,0,0,0,-1.948,-1.9478,-1.9386,-1.9385,-1.9384,-1.9308,-1.9307,-1.9306,-1.9246,-1.9245,-1.9245,-1.9244,-1.9161,-1.9159,-1.9157,0,0,0,0,0,0,0,0,0,0,0,0,0,-1.9424,-1.9478,-1.9386,-1.9345,-1.934,-1.9308,-1.9307,-1.9306,-1.9246,-1.9245,-1.9244,-1.9244,-1.9162,-1.9159,-1.9157,-1.9158,0,0,-1.9149,-1.9148,0,0,0,0,0,0,0,0,-1.9427,-1.9421,-1.9352,-1.9348,-1.9343,-1.9286,-1.931,-1.9256,-1.9246,-1.9282,-1.9244,-1.9243,-1.9203,-1.9197,-1.9184,-1.9154,-1.9151,-1.9149,-1.9147,-1.9146,-1.9146,0,0,0,0,0,0,0,-1.9431,-1.9424,-1.9355,-1.9351,-1.9345,-1.9329,-1.9321,-1.9299,-1.9248,-1.9279,-1.9274,-1.9266,-1.92,-1.9187,-1.9182,-1.915,-1.9149,-1.9147,-1.9145,-1.9144,-1.9118,-1.9119,0,0,0,0,0,0,-1.9442,-1.9427,-1.9357,-1.9353,-1.9384,-1.9329,-1.9319,-1.9305,-1.9248,-1.9239,-1.9267,-1.9263,-1.9191,-1.9185,-1.9178,-1.9176,-1.9146,-1.9144,-1.9142,-1.9117,-1.9118,-1.9119,0,0,0,0,0,0,-1.9444,-1.9436,-1.9361,-1.9389,-1.9378,-1.9328,-1.9313,-1.9304,-1.929,-1.9239,-1.9229,-1.9263,-1.919,-1.9182,-1.9164,-1.9173,-1.9143,-1.914,-1.9116,-1.9117,-1.9118,-1.9173,0,0,0,0,0,0,-1.9447,-1.9437,-1.9438,-1.9389,-1.9377,-1.9349,-1.9313,-1.9303,-1.9287,-1.9281,-1.9233,-1.9224,-1.9189,-1.9168,-1.9162,-1.9169,-1.9138,-1.9115,-1.9117,-1.9118,-1.917,-1.9176,-1.9181,0,0,0,0,0,-1.9451,-1.9455,-1.9438,-1.943,-1.9377,-1.9349,-1.9342,-1.9303,-1.9288,-1.9287,-1.9255,-1.9225,-1.9173,-1.9167,-1.9159,-1.9165,-1.9114,-1.9116,-1.9118,-1.9167,-1.9174,-1.918,0,0,0,0,0,0,-1.9505,-1.9448,-1.9429,-1.9418,-1.9389,-1.9339,-1.9338,-1.9312,-1.9286,-1.9282,-1.9234,-1.9223,-1.9211,-1.9186,-1.918,-1.9164,-1.914,-1.914,-1.918,-1.9187,-1.9192,-1.9197,-1.9136,0,0,0,0,0,-1.9516,-1.95,-1.945,-1.9446,-1.9432,-1.9388,-1.9374,-1.9348,-1.9315,-1.9302,-1.9268,-1.9237,-1.9213,-1.9199,-1.9174,-1.9167,-1.9155,-1.9167,-1.9172,-1.9177,-1.9177,-1.9172,-1.9176,-1.9125,-1.9125,-1.9125,0,0,-1.9538,-1.9505,-1.9497,-1.9456,-1.943,-1.9414,-1.9378,-1.9361,-1.9348,-1.9299,-1.928,-1.9255,-1.9217,-1.9204,-1.9197,-1.9183,-1.9189,-1.9179,-1.9183,-1.9181,-1.9174,-1.9179,-1.9183,-1.9126,-1.9126,-1.9126,0,0,-1.9569,-1.9543,-1.9536,-1.9512,-1.9474,-1.9445,-1.9444,-1.9398,-1.9379,-1.936,-1.9323,-1.9307,-1.9267,-1.9242,-1.9224,-1.9248,-1.9219,-1.9241,-1.9268,-1.9263,-1.9267,-1.9271,-1.9279,-1.9282,-1.9242,-1.9242,-1.9242,0,-1.96,-1.9575,-1.9536,-1.9522,-1.9505,-1.9462,-1.9454,-1.9432,-1.9388,-1.9377,-1.9363,-1.9313,-1.9285,-1.9266,-1.9272,-1.9259,-1.9255,-1.9246,-1.927,-1.9273,-1.9276,-1.9283,-1.9286,-1.9245,-1.9244,-1.9244,-1.9244,0,-1.9615,-1.9598,-1.9597,-1.9558,-1.9541,-1.953,-1.9489,-1.9476,-1.9451,-1.9423,-1.9404,-1.9369,-1.9337,-1.933,-1.9305,-1.9308,-1.9301,-1.9279,-1.9254,-1.9284,-1.929,-1.9292,-1.9249,-1.9248,-1.9247,-1.9246,0,0,-1.9677,-1.9617,-1.9617,-1.9599,-1.9555,-1.9541,-1.9529,-1.9499,-1.9489,-1.946,-1.9448,-1.9417,-1.9397,-1.9377,-1.9348,-1.9344,-1.9365,-1.9323,-1.9321,-1.9332,-1.9366,-1.9382,-1.9386,-1.9347,-1.9347,-1.9348,-1.9369,0,-1.9701,-1.9677,-1.9642,-1.963,-1.9614,-1.9573,-1.9562,-1.9534,-1.9508,-1.949,-1.946,-1.9439,-1.9414,-1.9402,-1.9396,-1.9364,-1.9371,-1.9362,-1.9334,-1.9334,-1.9344,-1.9389,-1.9406,-1.9428,-1.9371,-1.9372,-1.9372,0,-1.9725,-1.9701,-1.9687,-1.9646,-1.9638,-1.9629,-1.9599,-1.9582,-1.9549,-1.9531,-1.9509,-1.9479,-1.9463,-1.9441,-1.9419,-1.9413,-1.94,-1.9383,-1.9383,-1.9378,-1.9354,-1.9385,-1.9434,-1.9437,-1.9375,-1.9375,-1.9375,0,-1.9771,-1.9735,-1.9722,-1.9708,-1.9659,-1.9654,-1.9633,-1.9599,-1.9584,-1.9558,-1.9547,-1.9519,-1.9504,-1.9482,-1.9445,-1.9433,-1.9427,-1.9402,-1.941,-1.9411,-1.9409,-1.941,-1.9456,-1.9402,-1.9402,-1.9402,-1.9402,0,-1.9801,-1.9794,-1.9742,-1.9735,-1.9726,-1.9686,-1.9678,-1.9653,-1.9624,-1.961,-1.9573,-1.9561,-1.9513,-1.9495,-1.9465,-1.9451,-1.9444,-1.9428,-1.942,-1.9431,-1.9433,-1.9421,-1.9418,-1.9403,-1.9403,-1.9403,-1.9403,0,-1.985,-1.9815,-1.9799,-1.9755,-1.9744,-1.9739,-1.9701,-1.9691,-1.9664,-1.9647,-1.9641,-1.9597,-1.9574,-1.9535,-1.95,-1.9481,-1.9471,-1.9459,-1.9483,-1.9478,-1.9488,-1.9488,-1.9528,-1.9531,-1.9476,-1.9477,-1.9477,0,-1.9872,-1.9866,-1.9822,-1.981,-1.9791,-1.9774,-1.9758,-1.9719,-1.9704,-1.9667,-1.9662,-1.9636,-1.9614,-1.9578,-1.9543,-1.9516,-1.9502,-1.9518,-1.9497,-1.9509,-1.9501,-1.9502,-1.9501,-1.9522,-1.9523,-1.9524,-1.9524,0,-1.9913,-1.9896,-1.9876,-1.985,-1.9833,-1.9811,-1.9786,-1.9779,-1.9734,-1.9719,-1.9696,-1.9678,-1.9644,-1.9618,-1.9587,-1.9564,-1.9537,-1.9531,-1.9532,-1.9542,-1.9556,-1.9548,-1.9495,-1.953,-1.9529,-1.9529,-1.9529,-1.9528,-1.9948,-1.9941,-1.9909,-1.9888,-1.9866,-1.9844,-1.9834,-1.9806,-1.9786,-1.9756,-1.9733,-1.9712,-1.9679,-1.9634,-1.9614,-1.9595,-1.9583,-1.9583,-1.9583,-1.9584,-1.9588,-1.956,-1.9589,-1.9589,-1.9589,-1.9589,-1.9589,0,-1.9987,-1.9965,-1.9946,-1.9914,-1.9897,-1.9875,-1.9846,-1.9834,-1.9816,-1.9788,-1.9767,-1.9741,-1.9717,-1.968,-1.9653,-1.9645,-1.9632,-1.9639,-1.9639,-1.9634,-1.9601,-1.9603,-1.9651,-1.9651,-1.9651,-1.9651,-1.9651,-1.9651,-2.0005,-1.9992,-1.9972,-1.9948,-1.9926,-1.9905,-1.9891,-1.9871,-1.9849,-1.9821,-1.9802,-1.9779,-1.9747,-1.9718,-1.9694,-1.9684,-1.9675,-1.9687,-1.9673,-1.9642,-1.9636,-1.9631,-1.9633,-1.9685,-1.9686,-1.9707,-1.9707,-1.9707]},{"header":{"parameterUnit":"m.s-1","parameterCategory":1,"la1":30.2991,"la2":30.254,"lo1":-89.0895,"lo2":-89.0444,"dy":0.0017,"dx":0.0017,"nx":28,"ny":28,"refTime":"2024-05-24T03:00:00:Z","depth":0,"parameterNumber":3,"parameterNumberName":"V-component_of_WINDS"},"data":[0,0,0,0,0,0,0,0,0,0,0,0,0,0,0,0,0,0,0,0,0,0,0,0,0,0,0,0,0,0,0,0,0,0,0,0,0,0,0,0,0,0,0,0,0,0,0,0,0,0,0,0,0,0,0,0,0,0,3.6656,3.6655,0,3.6604,3.6604,3.6603,3.6552,3.6552,3.6551,3.655,3.6495,3.6494,3.6493,0,0,0,0,0,0,0,0,0,0,0,0,0,3.6709,3.6708,3.6656,3.6655,3.6655,3.6605,3.6604,3.6603,3.6552,3.6552,3.6551,3.655,3.6495,3.6494,3.6493,0,0,0,0,0,0,0,0,0,0,0,0,0,3.6674,3.6708,3.6656,3.6623,3.662,3.6605,3.6604,3.6603,3.6553,3.6552,3.6551,3.655,3.6496,3.6494,3.6493,3.6505,0,0,3.6489,3.6489,0,0,0,0,0,0,0,0,3.6676,3.6672,3.6629,3.6626,3.6622,3.6584,3.6602,3.657,3.6553,3.6578,3.655,3.6549,3.6525,3.6521,3.6514,3.6502,3.65,3.6489,3.6488,3.6488,3.6487,0,0,0,0,0,0,0,3.6679,3.6674,3.6635,3.6628,3.6624,3.6611,3.6605,3.6596,3.6558,3.6576,3.6572,3.6567,3.6523,3.6515,3.6512,3.6499,3.6489,3.6488,3.6487,3.6487,3.6496,3.6497,0,0,0,0,0,0,3.6686,3.6677,3.6637,3.6634,3.6647,3.6611,3.6604,3.6597,3.6558,3.6551,3.6568,3.6564,3.6518,3.6514,3.651,3.6522,3.6488,3.6486,3.6486,3.6495,3.6496,3.6497,0,0,0,0,0,0,3.6688,3.6683,3.6639,3.6654,3.6648,3.6611,3.6603,3.6596,3.6589,3.6552,3.6544,3.6567,3.6517,3.6512,3.6507,3.6519,3.6486,3.6485,3.6494,3.6495,3.6497,3.6546,0,0,0,0,0,0,3.6689,3.6684,3.6689,3.6655,3.6647,3.6638,3.6604,3.6596,3.6587,3.6582,3.6549,3.6542,3.6516,3.6509,3.6506,3.6517,3.6484,3.6492,3.6494,3.6496,3.6543,3.6549,3.6554,0,0,0,0,0,3.6691,3.6704,3.6689,3.6685,3.6652,3.6639,3.6634,3.6604,3.6588,3.6592,3.6568,3.6543,3.6519,3.6509,3.6505,3.6516,3.6491,3.6494,3.6496,3.654,3.6548,3.6554,0,0,0,0,0,0,3.6739,3.6699,3.6682,3.6684,3.6665,3.663,3.6634,3.6612,3.6597,3.6593,3.6556,3.6549,3.6549,3.6531,3.6522,3.6526,3.6502,3.6503,3.6537,3.6543,3.6549,3.6553,3.6483,0,0,0,0,0,3.675,3.6743,3.6708,3.6713,3.6705,3.6671,3.6664,3.6643,3.6621,3.6613,3.6589,3.6569,3.6556,3.6549,3.6535,3.654,3.6532,3.6546,3.6551,3.6556,3.6558,3.6559,3.6565,3.6505,3.6505,3.6505,0,0,3.6772,3.6749,3.6747,3.6722,3.6705,3.6698,3.6665,3.6659,3.6653,3.6612,3.6606,3.6588,3.6563,3.6563,3.6562,3.6549,3.6573,3.6559,3.6563,3.6562,3.6562,3.6568,3.6573,3.6506,3.6506,3.6506,0,0,3.6809,3.6791,3.6793,3.6777,3.6752,3.673,3.6731,3.6699,3.6686,3.668,3.6649,3.6642,3.6621,3.6605,3.6594,3.6626,3.6602,3.6622,3.6651,3.6653,3.6658,3.6662,3.6673,3.6678,3.6624,3.6624,3.6624,0,3.6839,3.6828,3.6797,3.6793,3.6783,3.6747,3.6749,3.6735,3.6706,3.67,3.6686,3.666,3.6641,3.6637,3.6645,3.6637,3.6637,3.6626,3.666,3.6663,3.6667,3.6677,3.6682,3.6627,3.6627,3.6626,3.6626,0,3.6867,3.686,3.6865,3.684,3.683,3.683,3.6798,3.6792,3.6772,3.6751,3.6746,3.6721,3.6703,3.67,3.668,3.6694,3.6687,3.6667,3.6642,3.6676,3.6685,3.6689,3.6631,3.663,3.6629,3.6628,0,0,3.6931,3.689,3.6892,3.6881,3.6851,3.6845,3.6843,3.6825,3.6821,3.6803,3.68,3.6784,3.6766,3.6754,3.6731,3.6733,3.6761,3.6713,3.6712,3.6723,3.6775,3.679,3.6795,3.6745,3.6746,3.6746,3.6777,0,3.6963,3.6957,3.693,3.6932,3.6925,3.6891,3.6889,3.6871,3.6852,3.6843,3.6821,3.6811,3.6787,3.678,3.678,3.6757,3.6771,3.6755,3.6741,3.6741,3.6749,3.68,3.6816,3.6846,3.678,3.6781,3.6781,0,3.6999,3.6984,3.6987,3.6958,3.6954,3.6953,3.6935,3.6927,3.6906,3.6892,3.6879,3.6854,3.6849,3.6827,3.682,3.6809,3.6802,3.679,3.6791,3.6788,3.6763,3.6799,3.6855,3.686,3.6787,3.6786,3.6786,0,3.7046,3.7027,3.7026,3.7017,3.6984,3.6984,3.697,3.6947,3.6939,3.6923,3.6917,3.6901,3.6892,3.688,3.6852,3.6838,3.6848,3.6823,3.6836,3.6837,3.6839,3.684,3.6895,3.6835,3.6835,3.6835,3.6835,0,3.7084,3.7087,3.7047,3.7046,3.7048,3.7017,3.7019,3.7002,3.6982,3.6977,3.6946,3.6942,3.6905,3.6897,3.6874,3.6872,3.6868,3.6856,3.685,3.6859,3.6861,3.6854,3.6851,3.6836,3.6836,3.6836,3.6836,0,3.7137,3.711,3.7107,3.7076,3.7068,3.7071,3.7045,3.7042,3.7022,3.7016,3.7013,3.6981,3.6969,3.694,3.692,3.6905,3.6909,3.6898,3.6917,3.6913,3.6928,3.6928,3.6981,3.6987,3.6924,3.6925,3.6925,0,3.7163,3.7165,3.7134,3.7129,3.7117,3.7109,3.7101,3.707,3.7062,3.7039,3.7039,3.7026,3.7013,3.6997,3.6971,3.6956,3.6944,3.6964,3.6942,3.6951,3.6945,3.6945,3.6945,3.6969,3.697,3.6971,3.6971,0,3.7212,3.72,3.7189,3.7175,3.7166,3.7153,3.7138,3.7136,3.7101,3.7094,3.7082,3.7073,3.7054,3.7041,3.7022,3.7007,3.6983,3.6979,3.6981,3.699,3.7001,3.6996,3.6931,3.6978,3.6977,3.6976,3.6976,3.6976,3.7253,3.7253,3.7232,3.7222,3.7207,3.7194,3.7191,3.7171,3.7161,3.7144,3.7126,3.7117,3.7095,3.7068,3.7055,3.7047,3.7034,3.7038,3.7038,3.704,3.7044,3.7003,3.7043,3.7043,3.7043,3.7042,3.7042,0,3.7301,3.7286,3.7277,3.7258,3.725,3.7229,3.7212,3.7207,3.7199,3.7182,3.717,3.7158,3.7145,3.7119,3.7104,3.7102,3.7091,3.7099,3.7099,3.7096,3.7056,3.7055,3.7109,3.7109,3.7109,3.7109,3.7109,3.7109,3.7325,3.7324,3.7309,3.7301,3.7285,3.7277,3.7269,3.7256,3.7242,3.723,3.722,3.7203,3.7182,3.7166,3.7153,3.7146,3.7141,3.7153,3.7143,3.7105,3.7099,3.7093,3.7092,3.7153,3.7153,3.7184,3.7184,3.7184]}]]